| time (UTC) | temp F | wind direction | speed MPH | gust MPH | rain 1hr in | rain 24hr in | rain mn in | humidity % | barometer mb |
| 20260509213047 | 57 | 40 | 0.0 | 1.0 | 0.00 | 0.00 | 0.00 | 62 | 1012.8 |
| 20260509211546 | 58 | 40 | 0.0 | 2.0 | 0.00 | 0.00 | 0.00 | 61 | 1012.8 |
| 20260509210047 | 58 | 40 | 0.0 | 2.0 | 0.00 | 0.00 | 0.00 | 60 | 1012.9 |
| 20260509204556 | 59 | 40 | 0.0 | 2.0 | 0.00 | 0.00 | 0.00 | 58 | 1012.7 |
| 20260509203044 | 60 | 40 | 0.0 | 0.0 | 0.00 | 0.00 | 0.00 | 57 | 1012.9 |
| 20260509201544 | 60 | 40 | 0.0 | 0.0 | 0.00 | 0.00 | 0.00 | 55 | 1012.9 |
| 20260509200044 | 61 | 40 | 0.0 | 0.0 | 0.00 | 0.00 | 0.00 | 54 | 1012.8 |
| 20260509194545 | 62 | 40 | 0.0 | 0.0 | 0.00 | 0.00 | 0.00 | 53 | 1012.7 |
| 20260509193045 | 63 | 40 | 0.0 | 0.0 | 0.00 | 0.00 | 0.00 | 52 | 1012.5 |
| 20260509191541 | 64 | 40 | 0.0 | 0.0 | 0.00 | 0.00 | 0.00 | 51 | 1012.6 |
| 20260509190041 | 65 | 40 | 0.0 | 2.0 | 0.00 | 0.00 | 0.00 | 51 | 1012.5 |
| 20260509184540 | 65 | 40 | 1.0 | 3.0 | 0.00 | 0.00 | 0.00 | 51 | 1012.4 |
| 20260509183039 | 66 | 40 | 1.0 | 3.0 | 0.00 | 0.00 | 0.00 | 50 | 1012.2 |
| 20260509181539 | 66 | 40 | 1.0 | 3.0 | 0.00 | 0.00 | 0.00 | 48 | 1012.1 |
| 20260509180038 | 66 | 40 | 1.0 | 3.0 | 0.00 | 0.00 | 0.00 | 46 | 1012.0 |
| 20260509174550 | 67 | 40 | 1.0 | 6.0 | 0.00 | 0.00 | 0.00 | 45 | 1011.9 |
| 20260509173043 | 67 | 29 | 2.0 | 5.0 | 0.00 | 0.00 | 0.00 | 45 | 1011.9 |
| 20260509171538 | 67 | 24 | 3.0 | 9.0 | 0.00 | 0.00 | 0.00 | 44 | 1011.8 |
| 20260509170035 | 68 | 61 | 5.0 | 10.0 | 0.00 | 0.00 | 0.00 | 43 | 1011.8 |
| 20260509164535 | 68 | 70 | 4.0 | 9.0 | 0.00 | 0.00 | 0.00 | 44 | 1012.1 |
| 20260509163031 | 68 | 42 | 2.0 | 7.0 | 0.00 | 0.00 | 0.00 | 44 | 1012.2 |
| 20260509161531 | 69 | 58 | 1.0 | 6.0 | 0.00 | 0.00 | 0.00 | 44 | 1012.4 |
| 20260509160031 | 69 | 58 | 3.0 | 6.0 | 0.00 | 0.00 | 0.00 | 43 | 1012.4 |
| 20260509154533 | 70 | 44 | 5.0 | 10.0 | 0.00 | 0.00 | 0.00 | 41 | 1012.4 |
| 20260509153029 | 71 | 67 | 3.0 | 6.0 | 0.00 | 0.00 | 0.00 | 40 | 1012.5 |
| 20260509151523 | 71 | 45 | 3.0 | 6.0 | 0.00 | 0.00 | 0.00 | 41 | 1012.6 |
| 20260509150022 | 71 | 57 | 1.0 | 9.0 | 0.00 | 0.00 | 0.00 | 41 | 1012.8 |
| 20260509144523 | 71 | 66 | 2.0 | 6.0 | 0.00 | 0.00 | 0.00 | 39 | 1012.9 |
| 20260509143021 | 71 | 128 | 3.0 | 7.0 | 0.00 | 0.00 | 0.00 | 39 | 1013.1 |
| 20260509134511 | 73 | 47 | 5.0 | 12.0 | 0.00 | 0.00 | 0.00 | 38 | 1013.5 |
| 20260509133009 | 74 | 28 | 4.0 | 10.0 | 0.00 | 0.00 | 0.00 | 37 | 1013.6 |
| 20260509131510 | 73 | 26 | 3.0 | 10.0 | 0.00 | 0.00 | 0.00 | 38 | 1013.8 |
| 20260509124537 | 73 | 45 | 4.0 | 9.0 | 0.00 | 0.00 | 0.00 | 38 | 1014.2 |
| 20260509121536 | 72 | 36 | 4.0 | 9.0 | 0.00 | 0.00 | 0.00 | 40 | 1014.5 |
| 20260509120023 | 70 | 15 | 3.0 | 9.0 | 0.00 | 0.00 | 0.00 | 41 | 1014.7 |
| 20260509111501 | 72 | 44 | 4.0 | 11.0 | 0.00 | 0.00 | 0.00 | 42 | 1015.1 |
| 20260509110100 | 71 | 51 | 5.0 | 9.0 | 0.00 | 0.00 | 0.00 | 43 | 1015.3 |
| 20260509104555 | 69 | 56 | 4.0 | 9.0 | 0.00 | 0.00 | 0.00 | 44 | 1015.5 |
| 20260509103054 | 67 | 92 | 4.0 | 10.0 | 0.00 | 0.00 | 0.00 | 45 | 1015.7 |
| 20260509101552 | 68 | 165 | 4.0 | 10.0 | 0.00 | 0.00 | 0.00 | 45 | 1015.7 |
| 20260509100048 | 67 | 150 | 2.0 | 7.0 | 0.00 | 0.00 | 0.00 | 46 | 1015.7 |
| 20260509094544 | 66 | 113 | 2.0 | 7.0 | 0.00 | 0.00 | 0.00 | 48 | 1015.7 |
| 20260509093041 | 66 | 103 | 5.0 | 10.0 | 0.00 | 0.00 | 0.00 | 50 | 1015.8 |
| 20260509091537 | 66 | 108 | 3.0 | 9.0 | 0.00 | 0.00 | 0.00 | 54 | 1015.8 |
| 20260509090035 | 65 | 108 | 5.0 | 9.0 | 0.00 | 0.00 | 0.00 | 51 | 1016.0 |
| 20260509084536 | 64 | 107 | 3.0 | 10.0 | 0.00 | 0.00 | 0.00 | 55 | 1016.0 |
| 20260509083038 | 64 | 75 | 2.0 | 9.0 | 0.00 | 0.00 | 0.00 | 61 | 1016.1 |
| 20260509081522 | 62 | 63 | 2.0 | 8.0 | 0.00 | 0.00 | 0.00 | 63 | 1016.1 |
| 20260509080026 | 62 | 51 | 3.0 | 5.0 | 0.00 | 0.00 | 0.00 | 64 | 1016.2 |
| 20260509074514 | 61 | 160 | 2.0 | 6.0 | 0.00 | 0.00 | 0.00 | 68 | 1016.2 |
| 20260509073011 | 59 | 165 | 1.0 | 5.0 | 0.00 | 0.00 | 0.00 | 71 | 1016.1 |
| 20260509071506 | 57 | 190 | 1.0 | 6.0 | 0.00 | 0.00 | 0.00 | 73 | 1016.2 |
| 20260509070002 | 56 | 210 | 1.0 | 4.0 | 0.00 | 0.00 | 0.00 | 75 | 1016.2 |
| 20260509064558 | 55 | 217 | 2.0 | 5.0 | 0.00 | 0.00 | 0.00 | 75 | 1016.2 |
| 20260509063103 | 54 | 220 | 1.0 | 3.0 | 0.00 | 0.00 | 0.00 | 77 | 1016.2 |
| 20260509061549 | 52 | 220 | 2.0 | 4.0 | 0.00 | 0.00 | 0.00 | 81 | 1016.2 |
| 20260509060050 | 50 | 221 | 1.0 | 3.0 | 0.00 | 0.00 | 0.00 | 82 | 1016.3 |
| 20260509054541 | 49 | 221 | 1.0 | 3.0 | 0.00 | 0.00 | 0.00 | 85 | 1016.2 |
| 20260509053055 | 47 | 221 | 0.0 | 2.0 | 0.00 | 0.00 | 0.00 | 89 | 1016.2 |
| 20260509051531 | 45 | 221 | 1.0 | 4.0 | 0.00 | 0.00 | 0.00 | 91 | 1016.1 |
| 20260509050029 | 44 | 221 | 1.0 | 2.0 | 0.00 | 0.00 | 0.00 | 91 | 1016.0 |
| 20260509044522 | 43 | 221 | 1.0 | 2.0 | 0.00 | 0.00 | 0.00 | 91 | 1015.9 |
| 20260509043017 | 43 | 221 | 1.0 | 3.0 | 0.00 | 0.00 | 0.00 | 90 | 1015.8 |
| 20260509041517 | 43 | 221 | 0.0 | 3.0 | 0.00 | 0.00 | 0.00 | 90 | 1015.7 |
| 20260509040010 | 43 | 221 | 1.0 | 2.0 | 0.00 | 0.00 | 0.00 | 90 | 1015.7 |
| 20260509034509 | 43 | 221 | 1.0 | 2.0 | 0.00 | 0.00 | 0.00 | 90 | 1015.7 |
| 20260509033008 | 43 | 221 | 0.0 | 2.0 | 0.00 | 0.00 | 0.00 | 89 | 1015.8 |
| 20260509031506 | 43 | 221 | 0.0 | 2.0 | 0.00 | 0.00 | 0.00 | 88 | 1015.8 |
| 20260509030005 | 43 | 221 | 1.0 | 2.0 | 0.00 | 0.00 | 0.00 | 86 | 1015.9 |
| 20260509024503 | 43 | 221 | 0.0 | 0.0 | 0.00 | 0.00 | 0.00 | 86 | 1016.0 |
| 20260509023001 | 44 | 221 | 0.0 | 0.0 | 0.00 | 0.00 | 0.00 | 85 | 1016.0 |
| 20260509021600 | 44 | 221 | 0.0 | 0.0 | 0.00 | 0.00 | 0.00 | 84 | 1016.0 |
| 20260509020058 | 44 | 221 | 0.0 | 0.0 | 0.00 | 0.00 | 0.00 | 84 | 1016.0 |
| 20260509014601 | 45 | 221 | 0.0 | 0.0 | 0.00 | 0.00 | 0.00 | 83 | 1016.0 |
| 20260509013100 | 45 | 221 | 1.0 | 2.0 | 0.00 | 0.00 | 0.00 | 82 | 1016.1 |
| 20260509011552 | 45 | 221 | 1.0 | 2.0 | 0.00 | 0.00 | 0.00 | 83 | 1016.1 |
| 20260509010055 | 46 | 221 | 1.0 | 3.0 | 0.00 | 0.00 | 0.00 | 83 | 1016.1 |
| 20260509004549 | 46 | 221 | 0.0 | 3.0 | 0.00 | 0.00 | 0.00 | 84 | 1016.2 |
| 20260509003050 | 46 | 221 | 0.0 | 2.0 | 0.00 | 0.00 | 0.00 | 83 | 1016.1 |
| 20260509001546 | 47 | 221 | 0.0 | 2.0 | 0.00 | 0.00 | 0.00 | 83 | 1016.1 |
| 20260509000044 | 47 | 221 | 2.0 | 4.0 | 0.00 | 0.00 | 0.00 | 82 | 1016.1 |
| 20260508234547 | 47 | 246 | 3.0 | 7.0 | 0.00 | 0.00 | 0.00 | 83 | 1016.1 |
| 20260508233043 | 47 | 55 | 2.0 | 4.0 | 0.00 | 0.00 | 0.00 | 83 | 1016.1 |
| 20260508231538 | 47 | 56 | 1.0 | 3.0 | 0.00 | 0.00 | 0.00 | 82 | 1016.1 |
| 20260508230047 | 48 | 56 | 0.0 | 2.0 | 0.00 | 0.00 | 0.00 | 78 | 1016.1 |
| 20260508224538 | 49 | 56 | 1.0 | 2.0 | 0.00 | 0.00 | 0.00 | 79 | 1016.1 |
| 20260508223036 | 49 | 56 | 0.0 | 2.0 | 0.00 | 0.00 | 0.00 | 77 | 1016.1 |
| 20260508221540 | 50 | 56 | 0.0 | 0.0 | 0.00 | 0.00 | 0.00 | 76 | 1016.0 |
| 20260508220029 | 50 | 56 | 0.0 | 2.0 | 0.00 | 0.00 | 0.00 | 76 | 1015.9 |
| 20260508214525 | 51 | 56 | 1.0 | 3.0 | 0.00 | 0.00 | 0.00 | 74 | 1015.9 |